This is the latest recevied weather packets stored in our database for station/object DK9HI-WX. If no packets are shown the sender has not sent any weather packets the latest 10 day(s).
| Time | Temp. | Humidity | Pressure | Rain* | Wind** | Luminosity | Snow |
|---|---|---|---|---|---|---|---|
| 1788005421 | 23.89° C | 55% | 1012 hPa | - | - | - | - |
| 1788004821 | 23.89° C | 56% | 1012 hPa | - | - | - | - |
| 1788004221 | 23.89° C | 57% | 1012 hPa | - | - | - | - |
| 1788003621 | 23.89° C | 58% | 1012 hPa | - | - | - | - |
| 1788003021 | 23.89° C | 57% | 1012.1 hPa | - | - | - | - |
| 1788002421 | 23.89° C | 57% | 1012.1 hPa | - | - | - | - |
| 1788001821 | 23.89° C | 60% | 1012.2 hPa | - | - | - | - |
| 1788001221 | 23.33° C | 65% | 1012.1 hPa | - | - | - | - |
| 1788000621 | 22.78° C | 65% | 1012.2 hPa | - | - | - | - |
| 1788000021 | 22.78° C | 66% | 1012.3 hPa | - | - | - | - |
| 1787999421 | 22.78° C | 68% | 1012.4 hPa | - | - | - | - |
| 1787998821 | 22.22° C | 69% | 1012.3 hPa | - | - | - | - |
| 1787998221 | 22.22° C | 69% | 1012.3 hPa | - | - | - | - |
| 1787997621 | 22.22° C | 69% | 1012.1 hPa | - | - | - | - |
| 1787997021 | 22.22° C | 68% | 1012.2 hPa | - | - | - | - |
| 1787996421 | 22.22° C | 68% | 1012.2 hPa | - | - | - | - |
| 1787995821 | 21.67° C | 70% | 1012.1 hPa | - | - | - | - |
| 1787995221 | 21.67° C | 74% | 1012.3 hPa | - | - | - | - |
| 1787994621 | 21.11° C | 74% | 1012 hPa | - | - | - | - |
| 1787994020 | 21.11° C | 76% | 1012.2 hPa | - | - | - | - |
| 1787993421 | 20.56° C | 78% | 1012.1 hPa | - | - | - | - |
| 1787992821 | 20.56° C | 79% | 1012.1 hPa | - | - | - | - |
| 1787992221 | 20.56° C | 80% | 1012 hPa | - | - | - | - |
| 1787991621 | 20° C | 82% | 1012.1 hPa | - | - | - | - |
| 1787991021 | 19.44° C | 84% | 1012.1 hPa | - | - | - | - |
* Rain since midnight (hover to see other rain measurements)
** Current wind speed in m/s (hover to see current wind gust speed)